Location: Ferme V�ronneau
(45.1425°N, 71.8745°W)
Time: 08:16:12
(UTC-04:00)

Envisat - Visible Passes

Search period start: 23 March 2019 00:00
Search period end: 02 April 2019 00:00
Orbit: 764 x 766 km, 98.2° (Epoch: 22 March)

Date Brightness Start Highest point End Pass type
(mag) Time Alt. Az. Time Alt. Az. Time Alt. Az.
23 Mar 5.9 20:44:44 10° SW 20:47:51 16° W 20:50:59 10° NW visible
24 Mar 4.8 20:06:10 10° SSW 20:10:45 34° W 20:15:22 10° NNW visible
25 Mar 3.3 19:28:47 10° S 19:33:51 73° WSW 19:38:57 10° NNW visible
26 Mar 5.7 20:32:47 10° SW 20:36:30 20° W 20:40:15 10° NW visible
27 Mar 4.4 19:54:40 10° S 19:59:28 42° W 20:04:19 10° NNW visible
28 Mar 6.1 21:00:39 10° WSW 21:02:22 12° W 21:04:05 10° WNW visible
29 Mar 5.4 20:21:01 10° SSW 20:25:11 25° W 20:29:22 10° NW visible
30 Mar 3.9 19:43:15 10° S 19:48:12 53° W 19:53:12 10° NNW visible
31 Mar 5.9 20:48:10 10° WSW 20:51:00 15° W 20:53:50 10° NW visible
01 Apr 5.0 20:09:23 10° SSW 20:13:52 31° W 20:18:23 10° NNW visible
